[[{"header":{"parameterUnit":"m.s-1","parameterCategory":1,"la1":30.2991,"la2":30.254,"lo1":-89.0895,"lo2":-89.0444,"dy":0.0017,"dx":0.0017,"nx":28,"ny":28,"refTime":"2024-06-16T21:00:00:Z","depth":0,"parameterNumber":2,"parameterNumberName":"U-component_of_WINDS"},"data":[0,0,0,0,0,0,0,0,0,0,0,0,0,0,0,0,0,0,0,0,0,0,0,0,0,0,0,0,0,0,0,0,0,0,0,0,0,0,0,0,0,0,0,0,0,0,0,0,0,0,0,0,0,0,0,0,0,0,-6.3727,-6.3727,0,-6.3755,-6.3755,-6.3755,-6.3619,-6.3615,-6.3611,-6.3607,-6.3636,-6.364,-6.3645,0,0,0,0,0,0,0,0,0,0,0,0,0,-6.3556,-6.356,-6.3727,-6.3727,-6.3727,-6.3755,-6.3755,-6.3755,-6.362,-6.3615,-6.361,-6.3606,-6.3635,-6.364,-6.3645,0,0,0,0,0,0,0,0,0,0,0,0,0,-6.3612,-6.3562,-6.3727,-6.3663,-6.3658,-6.3755,-6.3755,-6.3755,-6.3621,-6.3615,-6.3609,-6.3603,-6.3633,-6.3639,-6.3646,-6.3805,0,0,-6.3666,-6.3669,0,0,0,0,0,0,0,0,-6.3609,-6.3619,-6.3672,-6.3668,-6.3662,-6.3677,-6.3705,-6.3772,-6.3622,-6.3635,-6.3607,-6.36,-6.3655,-6.3659,-6.3677,-6.3807,-6.3808,-6.3667,-6.3671,-6.3674,-6.3676,0,0,0,0,0,0,0,-6.3605,-6.3617,-6.3738,-6.3673,-6.3667,-6.3633,-6.3635,-6.3717,-6.3677,-6.3633,-6.3623,-6.3629,-6.365,-6.3671,-6.3677,-6.3808,-6.3667,-6.3672,-6.3677,-6.3679,-6.4069,-6.4076,0,0,0,0,0,0,-6.361,-6.3614,-6.3737,-6.3739,-6.362,-6.3641,-6.3643,-6.3678,-6.3676,-6.367,-6.3634,-6.3622,-6.3663,-6.3669,-6.3677,-6.3862,-6.3674,-6.368,-6.3684,-6.4063,-6.4071,-6.4078,0,0,0,0,0,0,-6.3607,-6.3622,-6.3736,-6.3674,-6.3686,-6.365,-6.3691,-6.3682,-6.3702,-6.3676,-6.3669,-6.3662,-6.3658,-6.3668,-6.3774,-6.3861,-6.3683,-6.3689,-6.4056,-6.4066,-6.4074,-6.4235,0,0,0,0,0,0,-6.3603,-6.3622,-6.3682,-6.3676,-6.369,-6.3832,-6.3697,-6.3687,-6.3714,-6.3699,-6.3701,-6.3695,-6.3654,-6.3765,-6.3781,-6.3867,-6.3694,-6.4048,-6.406,-6.4071,-6.4222,-6.4249,-6.4272,0,0,0,0,0,-6.3597,-6.3726,-6.3686,-6.3701,-6.3764,-6.3838,-6.3845,-6.3795,-6.3722,-6.3781,-6.3765,-6.3695,-6.3851,-6.3777,-6.3794,-6.3884,-6.4042,-6.4056,-6.407,-6.421,-6.4244,-6.4272,0,0,0,0,0,0,-6.3742,-6.3724,-6.3679,-6.381,-6.3827,-6.3814,-6.3888,-6.3832,-6.387,-6.3854,-6.3791,-6.3792,-6.391,-6.3908,-6.3826,-6.4038,-6.3933,-6.3952,-6.4034,-6.4065,-6.409,-6.4087,-6.37,0,0,0,0,0,-6.379,-6.3852,-6.3832,-6.395,-6.3961,-6.3924,-6.3954,-6.3914,-6.3929,-6.3935,-6.3926,-6.3943,-6.3995,-6.4031,-6.4077,-6.4222,-6.422,-6.4292,-6.4318,-6.4339,-6.4354,-6.4429,-6.4461,-6.4125,-6.4125,-6.4124,0,0,-6.3888,-6.3886,-6.3928,-6.3979,-6.3987,-6.4052,-6.393,-6.4004,-6.4051,-6.3946,-6.4045,-6.404,-6.4055,-6.4181,-6.4236,-6.4183,-6.4447,-6.4357,-6.4374,-6.4378,-6.4447,-6.4479,-6.4508,-6.4135,-6.4133,-6.4131,0,0,-6.4099,-6.4105,-6.4203,-6.4214,-6.4228,-6.4203,-6.4227,-6.4224,-6.4216,-6.4315,-6.4237,-6.4294,-6.4385,-6.4398,-6.4417,-6.4637,-6.4573,-6.4654,-6.4784,-6.4859,-6.4885,-6.4908,-6.4984,-6.5013,-6.4671,-6.4671,-6.4671,0,-6.4219,-6.4314,-6.426,-6.4339,-6.4363,-6.4273,-6.4371,-6.4384,-6.4413,-6.4432,-6.4373,-6.4486,-6.449,-6.4617,-6.4671,-6.469,-6.4714,-6.4652,-6.4886,-6.4908,-6.4929,-6.5001,-6.503,-6.468,-6.4679,-6.4678,-6.4677,0,-6.446,-6.4527,-6.4604,-6.4634,-6.4668,-6.4757,-6.4717,-6.4757,-6.4716,-6.4698,-6.48,-6.4801,-6.4846,-6.4875,-6.4835,-6.4997,-6.4963,-6.4897,-6.4789,-6.4972,-6.5038,-6.5065,-6.4694,-6.4691,-6.4688,-6.4685,0,0,-6.4759,-6.476,-6.4789,-6.4802,-6.4812,-6.4863,-6.4948,-6.4992,-6.5028,-6.5052,-6.5121,-6.5202,-6.514,-6.5162,-6.5124,-6.5189,-6.5361,-6.5114,-6.5113,-6.5157,-6.5538,-6.5586,-6.5618,-6.5321,-6.5326,-6.533,-6.5536,0,-6.4964,-6.5108,-6.5063,-6.5209,-6.527,-6.5186,-6.526,-6.5275,-6.5261,-6.531,-6.5295,-6.5352,-6.5268,-6.528,-6.5342,-6.5327,-6.5436,-6.5312,-6.5383,-6.5386,-6.5378,-6.5653,-6.5704,-6.5897,-6.5562,-6.5566,-6.5569,0,-6.5221,-6.5255,-6.5407,-6.5407,-6.5431,-6.5498,-6.5535,-6.5585,-6.56,-6.5585,-6.5611,-6.5559,-6.5643,-6.5539,-6.5653,-6.557,-6.5597,-6.5595,-6.5601,-6.5602,-6.5486,-6.566,-6.5958,-6.5986,-6.561,-6.5607,-6.5604,0,-6.5421,-6.5506,-6.5607,-6.5621,-6.5624,-6.5673,-6.5677,-6.5687,-6.5716,-6.575,-6.5768,-6.5812,-6.5835,-6.587,-6.5831,-6.5759,-6.5951,-6.5844,-6.5939,-6.594,-6.598,-6.5977,-6.6284,-6.6004,-6.6003,-6.6003,-6.6002,0,-6.5652,-6.5747,-6.5696,-6.5758,-6.5863,-6.5812,-6.5918,-6.5912,-6.5922,-6.5981,-6.5913,-6.597,-6.5918,-6.5971,-6.5942,-6.604,-6.6052,-6.6041,-6.6031,-6.6045,-6.6046,-6.6059,-6.6043,-6.6011,-6.6009,-6.6007,-6.6006,0,-6.589,-6.5861,-6.5965,-6.5961,-6.5962,-6.604,-6.6036,-6.6093,-6.6076,-6.6152,-6.6167,-6.6139,-6.6198,-6.6164,-6.6225,-6.6205,-6.6332,-6.6306,-6.6326,-6.6318,-6.6415,-6.6405,-6.6737,-6.6778,-6.6475,-6.6478,-6.6481,0,-6.6038,-6.6109,-6.6113,-6.6148,-6.6157,-6.6214,-6.6244,-6.6199,-6.6233,-6.6257,-6.6311,-6.6365,-6.6404,-6.6502,-6.6487,-6.6534,-6.6506,-6.662,-6.6512,-6.6524,-6.6504,-6.6499,-6.6505,-6.664,-6.6643,-6.6646,-6.6649,0,-6.6302,-6.6284,-6.633,-6.6372,-6.6411,-6.6441,-6.6466,-6.6499,-6.6454,-6.6496,-6.6555,-6.6587,-6.6649,-6.6702,-6.6742,-6.6746,-6.669,-6.6684,-6.6707,-6.672,-6.6728,-6.6722,-6.6382,-6.6675,-6.6672,-6.667,-6.6669,-6.6668,-6.6497,-6.6556,-6.6568,-6.6622,-6.6637,-6.6663,-6.6716,-6.6706,-6.6755,-6.6801,-6.6772,-6.6842,-6.6856,-6.6904,-6.6916,-6.697,-6.6924,-6.6959,-6.6968,-6.6976,-6.6988,-6.6723,-6.6977,-6.6977,-6.6976,-6.6975,-6.6975,0,-6.6754,-6.6759,-6.6809,-6.6847,-6.689,-6.6836,-6.6861,-6.69,-6.6962,-6.6981,-6.7022,-6.7091,-6.7143,-6.7134,-6.7181,-6.7226,-6.7202,-6.724,-6.7234,-6.7235,-6.7028,-6.7001,-6.7259,-6.7259,-6.7258,-6.7258,-6.7258,-6.7258,-6.6893,-6.699,-6.6974,-6.7079,-6.7082,-6.715,-6.7169,-6.7192,-6.7207,-6.7287,-6.733,-6.7324,-6.7331,-6.7379,-6.7424,-6.742,-6.7439,-6.7487,-6.7473,-6.7278,-6.725,-6.7223,-6.7197,-6.7492,-6.7492,-6.7675,-6.7677,-6.7679]},{"header":{"parameterUnit":"m.s-1","parameterCategory":1,"la1":30.2991,"la2":30.254,"lo1":-89.0895,"lo2":-89.0444,"dy":0.0017,"dx":0.0017,"nx":28,"ny":28,"refTime":"2024-06-16T21:00:00:Z","depth":0,"parameterNumber":3,"parameterNumberName":"V-component_of_WINDS"},"data":[0,0,0,0,0,0,0,0,0,0,0,0,0,0,0,0,0,0,0,0,0,0,0,0,0,0,0,0,0,0,0,0,0,0,0,0,0,0,0,0,0,0,0,0,0,0,0,0,0,0,0,0,0,0,0,0,0,0,1.0312,1.0312,0,1.0289,1.0288,1.0288,1.026,1.0259,1.0259,1.0258,1.0234,1.0234,1.0233,0,0,0,0,0,0,0,0,0,0,0,0,0,1.0334,1.0334,1.0313,1.0312,1.0312,1.0289,1.0288,1.0288,1.026,1.0259,1.0259,1.0258,1.0234,1.0234,1.0233,0,0,0,0,0,0,0,0,0,0,0,0,0,1.0319,1.0334,1.0313,1.0295,1.0293,1.0289,1.0288,1.0288,1.026,1.0259,1.0259,1.0258,1.0234,1.0234,1.0233,1.0244,0,0,1.0232,1.0232,0,0,0,0,0,0,0,0,1.032,1.0318,1.0298,1.0296,1.0294,1.0276,1.0287,1.0273,1.026,1.0272,1.0258,1.0258,1.0249,1.0247,1.0244,1.0243,1.0242,1.0232,1.0232,1.0232,1.0232,0,0,0,0,0,0,0,1.0321,1.0319,1.0303,1.0298,1.0295,1.0289,1.0286,1.0284,1.0265,1.0271,1.0269,1.0267,1.0247,1.0244,1.0243,1.0242,1.0232,1.0232,1.0232,1.0232,1.025,1.0251,0,0,0,0,0,0,1.0325,1.032,1.0304,1.0302,1.0306,1.0289,1.0285,1.0283,1.0264,1.0261,1.0267,1.0266,1.0245,1.0244,1.0242,1.0255,1.0232,1.0231,1.0231,1.025,1.025,1.0251,0,0,0,0,0,0,1.0325,1.0323,1.0305,1.0311,1.0308,1.0289,1.0286,1.0283,1.028,1.0261,1.0258,1.0268,1.0245,1.0243,1.0244,1.0253,1.0231,1.0231,1.0249,1.025,1.0251,1.0279,0,0,0,0,0,0,1.0326,1.0324,1.0327,1.0311,1.0308,1.0307,1.0287,1.0283,1.0279,1.0276,1.0261,1.0258,1.0244,1.0245,1.0244,1.0252,1.0231,1.0248,1.0249,1.025,1.0277,1.0281,1.0284,0,0,0,0,0,1.0327,1.0336,1.0328,1.0326,1.0312,1.0308,1.0306,1.029,1.028,1.0284,1.0272,1.0258,1.0253,1.0245,1.0244,1.0252,1.0247,1.0249,1.025,1.0276,1.028,1.0284,0,0,0,0,0,0,1.0354,1.0333,1.0324,1.0328,1.032,1.0303,1.0307,1.0295,1.0289,1.0287,1.0267,1.0264,1.0268,1.0261,1.0253,1.0263,1.0248,1.0249,1.0268,1.0272,1.0275,1.0277,1.023,0,0,0,0,0,1.036,1.0358,1.0341,1.0346,1.0343,1.0326,1.0323,1.0312,1.0302,1.0299,1.0287,1.0279,1.0275,1.0273,1.0269,1.0276,1.0273,1.0281,1.0285,1.0288,1.0289,1.0294,1.0297,1.0256,1.0256,1.0256,0,0,1.0373,1.0362,1.0362,1.0351,1.0344,1.0343,1.0323,1.0322,1.0321,1.0299,1.0299,1.0291,1.028,1.0285,1.0287,1.0279,1.03,1.029,1.0292,1.0292,1.0296,1.03,1.0303,1.0258,1.0257,1.0257,0,0,1.0397,1.0388,1.0392,1.0385,1.0373,1.0362,1.0364,1.0348,1.0342,1.0343,1.0326,1.0325,1.0319,1.0312,1.0308,1.0331,1.0318,1.033,1.0348,1.0353,1.0356,1.0359,1.0367,1.0371,1.0332,1.0332,1.0332,0,1.0414,1.0412,1.0395,1.0396,1.0392,1.0372,1.0377,1.037,1.0358,1.0356,1.0348,1.0341,1.0332,1.0335,1.0341,1.0338,1.0339,1.0332,1.0357,1.0359,1.0362,1.037,1.0373,1.0333,1.0333,1.0333,1.0333,0,1.0434,1.0433,1.0438,1.0427,1.0424,1.0426,1.0411,1.041,1.0399,1.0389,1.0391,1.038,1.0374,1.0374,1.0363,1.0376,1.0372,1.036,1.0345,1.0367,1.0375,1.0378,1.0336,1.0335,1.0335,1.0334,0,0,1.0473,1.0454,1.0456,1.0452,1.0438,1.0437,1.0439,1.0433,1.0433,1.0426,1.0428,1.0424,1.0414,1.0409,1.0398,1.0402,1.0421,1.039,1.0389,1.0396,1.0436,1.0445,1.0449,1.0413,1.0413,1.0414,1.0437,0,1.0494,1.0496,1.0482,1.0489,1.0488,1.047,1.0472,1.0464,1.0455,1.0454,1.0444,1.0442,1.0428,1.0425,1.0428,1.0418,1.0429,1.0416,1.0415,1.0415,1.0418,1.0452,1.0461,1.0483,1.044,1.044,1.044,0,1.0518,1.0513,1.052,1.0507,1.0506,1.0508,1.0503,1.0501,1.0493,1.0486,1.0482,1.0469,1.0471,1.0457,1.0459,1.0451,1.045,1.0445,1.0446,1.0445,1.0429,1.0452,1.049,1.0493,1.0445,1.0444,1.0444,0,1.0546,1.0541,1.0544,1.0541,1.0527,1.0529,1.0523,1.0514,1.0512,1.0507,1.0505,1.05,1.0498,1.0495,1.0481,1.0472,1.0486,1.047,1.0481,1.0481,1.0484,1.0484,1.0522,1.0484,1.0483,1.0483,1.0483,0,1.0571,1.0576,1.0557,1.0559,1.0564,1.0548,1.0554,1.0546,1.0539,1.0539,1.0524,1.0525,1.0507,1.0506,1.0496,1.05,1.0499,1.0494,1.0491,1.0496,1.0496,1.0494,1.0493,1.0484,1.0484,1.0484,1.0484,0,1.0603,1.059,1.0593,1.058,1.0576,1.0581,1.057,1.0571,1.0562,1.0563,1.0563,1.0548,1.0547,1.0534,1.0529,1.0522,1.053,1.0525,1.0533,1.0531,1.0543,1.0542,1.0581,1.0586,1.0544,1.0544,1.0545,0,1.062,1.0623,1.061,1.061,1.0605,1.0604,1.0602,1.0587,1.0586,1.0577,1.058,1.0578,1.0575,1.0573,1.0563,1.056,1.0554,1.0568,1.0553,1.0558,1.0554,1.0554,1.0555,1.0571,1.0571,1.0571,1.0572,0,1.0651,1.0645,1.0642,1.0638,1.0637,1.0633,1.0627,1.0628,1.0612,1.0611,1.061,1.0608,1.0604,1.0601,1.0597,1.0591,1.0579,1.0577,1.0579,1.0583,1.0588,1.0586,1.0542,1.0576,1.0575,1.0575,1.0575,1.0575,1.0676,1.0678,1.067,1.0669,1.0663,1.066,1.0661,1.0652,1.0651,1.0646,1.0638,1.0638,1.0631,1.0623,1.0619,1.0619,1.0612,1.0615,1.0616,1.0617,1.0619,1.0589,1.0618,1.0618,1.0618,1.0618,1.0617,0,1.0706,1.0701,1.0699,1.0693,1.0692,1.0682,1.0676,1.0676,1.0676,1.0671,1.0668,1.0667,1.0666,1.0655,1.0653,1.0655,1.0649,1.0655,1.0654,1.0653,1.0626,1.0624,1.0659,1.0659,1.0659,1.0659,1.0659,1.0659,1.0722,1.0726,1.072,1.0722,1.0716,1.0716,1.0714,1.071,1.0706,1.0706,1.0704,1.0698,1.069,1.0687,1.0686,1.0683,1.0683,1.069,1.0685,1.0659,1.0655,1.0651,1.065,1.069,1.069,1.0713,1.0713,1.0713]}]]